This demonstration page uses our WeatherBlox Daily Observations layout. Learn more.

Left ArrowRight Arrow

Hourly Observations for March 25, 2018

Temp ( °F °C ) Dew Point ( °F °C ) Humidity (%) Winds ( mph kmh ) Pressure ( in mb ) Visibility ( mi km ) Precip ( " mm )
12:53 am 00:53 Cloudy 32 0 29 -1.7 88 88 SE 10 17 30.10 1019 10 16 0.00 0.00
1:53 am 01:53 Cloudy 31 -0.6 28 -2.2 89 89 E 15 24 30.06 1018 10 16 0.00 0.00
2:53 am 02:53 Cloudy 31 -0.6 29 -1.7 92 92 SE 10 17 30.09 1019 10 16 0.00 0.00
3:53 am 03:53 Cloudy with Mist and Fog 31 -0.6 29 -1.7 92 92 ESE 15 24 30.04 1017 6 10 0.00 0.00
4:53 am 04:53 Cloudy 31 -0.6 30 -1.1 96 96 SE 14 22 30.06 1018 10 16 0.00 0.00
5:53 am 05:53 Cloudy 31 -0.6 30 -1.1 96 96 ESE 15 24 30.04 1017 10 16 0.00 0.00
6:53 am 06:53 Cloudy 31 -0.6 29 -1.7 92 92 SE 12 19 30.04 1017 10 16 0.00 0.00
7:53 am 07:53 Cloudy 31 -0.6 29 -1.7 92 92 SE 14 22 30.06 1018 10 16 0.00 0.00
8:53 am 08:53 Cloudy 31 -0.6 30 -1.1 96 96 SE 13 20 30.08 1019 10 16 0.00 0.00
9:53 am 09:53 Cloudy 31 -0.6 30 -1.1 96 96 SSE 9 15 30.09 1019 10 16 0.00 0.00
10:53 am 10:53 Cloudy 32 0 30 -1.1 92 92 SE 9 15 30.10 1019 10 16 0.00 0.00
11:53 am 11:53 Cloudy 32 0 31 -0.6 96 96 SSE 7 11 30.09 1019 9 14 0.00 0.00
12:53 pm 12:53 Cloudy 32 0 31 -0.6 96 96 SE 7 11 30.07 1018 9 14 0.00 0.00
1:10 pm 13:10 Cloudy 32 0 32 0 100 100 SE 6 9 30.09 1019 8 13 0.00 0.00
1:53 pm 13:53 Cloudy 33 0.6 32 0 96 96 SE 7 11 30.05 1018 7 11 0.00 0.00
2:53 pm 14:53 Cloudy with Mist and Fog 33 0.6 32 0 96 96 E 7 11 30.03 1017 6 10 0.00 0.00
3:53 pm 15:53 Cloudy 33 0.6 32 0 96 96 ESE 7 11 30.02 1017 8 13 0.00 0.00
4:23 pm 16:23 Cloudy 34 1 32 0 93 93 E 7 11 30.06 1018 10 16 0.00 0.00
4:53 pm 16:53 Cloudy 34 1.1 32 0 92 92 ESE 9 15 30.00 1016 10 16 0.00 0.00
5:53 pm 17:53 Cloudy 35 1.7 32 0 89 89 ESE 9 15 30.00 1016 10 16 0.00 0.00
6:17 pm 18:17 Cloudy 35 1.7 33 0.6 93 93 E 7 11 30.03 1017 10 16 0.00 0.00
6:32 pm 18:32 Cloudy 36 2 34 1 93 93 E 8 13 30.00 1016 8 13 0.00 0.00
6:51 pm 18:51 Cloudy 36 2 34 1 93 93 E 5 7 30.00 1016 9 14 0.00 0.00
6:53 pm 18:53 Cloudy 36 2.2 34 1.1 93 93 E 5 7 29.99 1016 9 14 0.00 0.00
7:30 pm 19:30 Cloudy 36 2 34 1 93 93 E 7 11 30.00 1016 10 16 0.00 0.00
7:40 pm 19:40 Cloudy 36 2 34 1 93 93 E 8 13 30.00 1016 10 16 0.00 0.00
7:51 pm 19:51 Cloudy 36 2 34 1 93 93 E 8 13 30.00 1016 10 16 0.00 0.00
7:53 pm 19:53 Cloudy 35 1.7 33 0.6 93 93 ENE 9 15 29.99 1016 10 16 0.00 0.00
8:53 pm 20:53 Cloudy 36 2.2 34 1.1 93 93 E 10 17 30.01 1016 10 16 0.00 0.00
9:53 pm 21:53 Cloudy 36 2.2 34 1.1 93 93 ENE 12 19 30.01 1016 8 13 0.00 0.00
10:53 pm 22:53 Mostly Cloudy 35 1.7 34 1.1 96 96 E 14 22 29.99 1016 7 11 0.00 0.00
11:27 pm 23:27 Mostly Cloudy 36 2.2 35 1.7 97 97 E 10 17 30.00 1016 7 11 0.00 0.00
11:53 pm 23:53 Cloudy 36 2.2 35 1.7 97 97 E 14 22 29.99 1016 8 13 0.00 0.00

Powered by AerisWeather